Location: アルンシュタイン
(50.0000°N, 10.0000°E)
Time: 21:37:42
(UTC+02:00)

Oscar 19 - Pass Details

Date: 05 February 2022
Orbit: 774 x 789 km, 98.8° (Epoch: 27 May)

Event Time Altitude Azimuth Distance (km) Brightness Sun altitude
Rises 04:47:51 0° 8° (N) 3,283 14.1 -29.1°
Reaches altitude 10° 04:50:22 10° 359° (N) 2,348 13.2 -28.7°
Enters shadow 04:51:26 16° 353° (N) 1,985 12.7 -28.5°
